Tracking 17886 objects as of 9-December-2016
HD Live streaming from Space Station
objects crossing your sky now

NAVSTAR 30 (USA 88)

Track NAVSTAR 30 (USA 88) now!
NAVSTAR 30 (USA 88) is classified as:


NORAD ID: 22446
Int'l Code: 1993-007A
Perigee: 21,294.2 km
Apogee: 21,425.5 km
Inclination: 55.5 °
Period: 766.0 minutes
Semi major axis: 27730 km
RCS: 2.5118 m2 (large)
Launch date: February 3, 1993
Source: United States (US)
Launch site: AIR FORCE EASTERN TEST RANGE (AFETR)
PRN:
Your satellite tracking list
Your tracking list is empty





NASA's NSSDC Master Catalog

Two Line Element Set (TLE):
1 22446U 93007A   16343.34406942 -.00000049  00000-0  00000+0 0  9999
2 22446  55.4792   6.4836 0023671 326.6440 209.9515  1.88091839168635
Source of the keplerian elements: AFSPC